Weather History for Mmabatho, South Africa

Change the Weather History Date:

Sunday, October 28, 2012

  Actual Average Record
Temperature  
Mean Temperature 74 °F -  
Max Temperature 91 °F - - ()
Min Temperature 58 °F - - ()
Cooling Degree Days 10    
Growing Degree Days 24 (Base 50)    
Moisture  
Dew Point 49 °F    
Average Humidity 47    
Maximum Humidity 82    
Minimum Humidity 6    
Precipitation  
Precipitation 0.00 in - - ()
Sea Level Pressure  
Sea Level Pressure 30.09 in    
Wind  
Wind Speed 11 mph ()    
Max Wind Speed 20 mph    
Max Gust Speed 22 mph    
Visibility 11.7 miles    
Events      
T = Trace of Precipitation, MM = Missing Value Source: Averaged Metar Reports

Daily Weather History Graph

Daily Weather History Graph

Search for Another Location

Airport:

Trip Planner

Search our weather history database for the weather conditions in past years. The results will help you decide how hot, cold, wet, or windy it might be!

Date:

Astronomy

Oct. 28, 2012 Rise Set
Actual Time 5:31 AM SAST 6:31 PM SAST
Civil Twilight 5:07 AM SAST 6:55 PM SAST
Nautical Twilight 4:39 AM SAST 7:24 PM SAST
Astronomical Twilight 4:10 AM SAST 7:53 PM SAST
Moon 5:30 PM SAST (10/28) 4:25 AM SAST (10/28)
Length of Visible Light 13h 48m
Length of Day
13h 00m
Waxing Gibbous, 98% of the Moon is Illuminated
Oct 28
Waxing Gibbous
Oct 29
Full
Nov 7
Last Quarter
Nov 14
New
Nov 20
First Quarter

Hourly Weather History & Observations

Time (SAST) Temp. Dew Point Humidity Pressure Visibility Wind Dir Wind Speed Gust Speed Precip Events Conditions
12:00 AM 62.6 °F 53.6 °F 72% 30.09 in - NNE 17.3 mph - N/A   Unknown
1:00 AM 60.8 °F 51.8 °F 72% 30.09 in - NE 17.3 mph - N/A   Unknown
2:00 AM 60 °F 53 °F 71%  in - NNE 16.1 mph - -  
2:00 AM 59.0 °F 51.8 °F 77% 30.06 in - NNE 16.1 mph - N/A   Unknown
3:00 AM 59.0 °F 51.8 °F 77% 30.06 in - NNE 16.1 mph - N/A   Unknown
4:00 AM 59.0 °F 51.8 °F 77% 30.09 in - NNE 13.8 mph - N/A   Unknown
5:00 AM 59 °F 53 °F 73%  in 19 mi NNE 13.8 mph - -  
5:00 AM 57.2 °F 51.8 °F 82% 30.12 in - NNE 12.7 mph - N/A   Unknown
6:00 AM 57.2 °F 51.8 °F 82% 30.12 in - NNE 11.5 mph - N/A   Clear
7:00 AM 62.6 °F 51.8 °F 68% 30.12 in - NNE 12.7 mph - N/A   Clear
7:35 AM 66.2 °F 51.8 °F 60% 30.15 in - North 12.7 mph - N/A   Clear
8:00 AM 69 °F 53 °F 47%  in 19 mi North 12.7 mph - -  
8:00 AM 68.0 °F 51.8 °F 56% 30.15 in - North 12.7 mph - N/A   Clear
8:17 AM 71.6 °F 51.8 °F 50% 30.15 in - North 13.8 mph - N/A   Clear
9:00 AM 73.4 °F 51.8 °F 47% 30.15 in - North 9.2 mph - N/A   Clear
9:37 AM 77.0 °F 50.0 °F 39% 30.15 in - North 11.5 mph - N/A   Clear
10:00 AM 77.0 °F 51.8 °F 41% 30.12 in - North 9.2 mph 21.9 mph N/A   Clear
11:00 AM 81 °F 51 °F 25%  in 19 mi North 9.2 mph - -  
11:00 AM 80.6 °F 50.0 °F 34% 30.12 in - North 8.1 mph - N/A   Clear
12:00 PM 82.4 °F 48.2 °F 30% 30.09 in 6.2 mi NNW 5.8 mph - N/A   Partly Cloudy
1:00 PM 86.0 °F 44.6 °F 23% 30.06 in 6.2 mi NNW 5.8 mph - N/A   Partly Cloudy
2:00 PM 87 °F 39 °F 10%  in 19 mi NNW 8.1 mph - -   Scattered Clouds
2:00 PM 86.0 °F 39.2 °F 19% 30.04 in 6.2 mi NNW 8.1 mph - N/A   Partly Cloudy
3:00 PM 89.6 °F 32.0 °F 13% 30.04 in 6.2 mi West 5.8 mph - N/A   Scattered Clouds
4:00 PM 87.8 °F 32.0 °F 14% 30.01 in 6.2 mi South 2.3 mph - N/A   Partly Cloudy
5:00 PM 89 °F 31 °F 6%  in 19 mi West 3.5 mph - -   Partly Cloudy
5:00 PM 87.8 °F 32.0 °F 14% 30.01 in 6.2 mi West 2.3 mph - N/A   Partly Cloudy
6:00 PM 78.8 °F 50.0 °F 36% 30.01 in 6.2 mi North 15.0 mph - N/A   Partly Cloudy
7:00 PM 77.0 °F 53.6 °F 44% 30.04 in 6.2 mi North 9.2 mph - N/A   Partly Cloudy
8:00 PM 76 °F 55 °F 38%  in 19 mi NNE 10.4 mph - -   Scattered Clouds
8:00 PM 75.2 °F 53.6 °F 47% 30.06 in - NNE 10.4 mph - N/A   Clear
9:00 PM 75.2 °F 53.6 °F 47% 30.06 in - NNE 12.7 mph - N/A   Unknown
10:00 PM 71.6 °F 53.6 °F 53% 30.09 in - NNE 19.6 mph - N/A   Unknown
11:00 PM 73 °F 55 °F 43%  in - North 15.0 mph - -  
11:00 PM 71.6 °F 53.6 °F 53% 30.09 in - North 15.0 mph - N/A   Unknown